Weather History for Wautoma, WI

Change the Weather History Date:

Saturday, November 19, 2011

  Actual Average (KPCZ) Record (KPCZ)
Temperature  
Mean Temperature 32 °F -  
Max Temperature 42 °F 42 °F 69 °F (1953)
Min Temperature 23 °F 26 °F 6 °F (1951)
Degree Days  
Heating Degree Days 32    
Moisture  
Dew Point 34 °F    
Average Humidity 89    
Maximum Humidity 100    
Minimum Humidity 53    
Precipitation  
Precipitation 0.00 in - - ()
Sea Level Pressure  
Sea Level Pressure 29.75 in    
Wind  
Wind Speed 2 mph (NNW)    
Max Wind Speed 13 mph    
Max Gust Speed -    
Visibility 6 miles    
Events Rain    
Averages and records for this station are not official NWS values.
T = Trace of Precipitation, MM = Missing Value Source: NWS Daily Summary

Daily Weather History Graph

Daily Weather History Graph

Search for Another Location

Airport:

Trip Planner

Search our weather history database for the weather conditions in past years. The results will help you decide how hot, cold, wet, or windy it might be!

Date:

Astronomy

Nov. 19, 2011 Rise Set
Actual Time 6:57 AM CST 4:27 PM CST
Civil Twilight 6:25 AM CST 4:59 PM CST
Nautical Twilight 5:50 AM CST 5:34 PM CST
Astronomical Twilight 5:16 AM CST 6:08 PM CST
Moon 12:04 AM CST (11/19) 12:56 PM CST (11/19)
Length of Visible Light 10h 33m
Length of Day
9h 30m
Last Quarter, 38% of the Moon is Illuminated
Nov 19
Last Quarter
Nov 25
New
Dec 2
First Quarter
Dec 10
Full
Dec 17
Last Quarter

Hourly Weather History & Observations

Time (CST) Temp. Windchill Dew Point Humidity Pressure Visibility Wind Dir Wind Speed Gust Speed Precip Events Conditions
12:56 AM 23.0 °F - 21.0 °F 92% 29.77 in 10.0 mi Calm Calm - N/A   Clear
1:56 AM 26.1 °F - 24.1 °F 92% 29.79 in 10.0 mi Calm Calm - N/A   Overcast
2:56 AM 29.1 °F - 27.1 °F 92% 29.79 in 10.0 mi Calm Calm - N/A   Overcast
3:56 AM 31.1 °F - 28.0 °F 88% 29.79 in 10.0 mi Calm Calm - N/A   Overcast
4:56 AM 32.0 °F - 30.0 °F 92% 29.79 in 10.0 mi Calm Calm - N/A   Overcast
5:56 AM 38.8 °F - 27.1 °F 63% 29.79 in 10.0 mi Calm Calm - N/A   Overcast
6:56 AM 39.9 °F - 26.1 °F 58% 29.81 in 10.0 mi Calm Calm - N/A   Overcast
7:56 AM 34.9 °F - 30.0 °F 82% 29.82 in 10.0 mi Calm Calm - N/A   Overcast
8:56 AM 37.9 °F - 31.1 °F 76% 29.79 in 10.0 mi Calm Calm - N/A   Overcast
9:56 AM 41.9 °F 36.9 °F 26.1 °F 53% 29.79 in 10.0 mi SSE 8.1 mph - N/A   Overcast
10:56 AM 41.9 °F 36.9 °F 27.1 °F 56% 29.76 in 10.0 mi SSE 8.1 mph - N/A   Overcast
12:56 PM 41.9 °F - 30.0 °F 63% 29.74 in 8.0 mi Calm Calm - 0.00 in Rain Light Rain
1:34 PM 42.8 °F 39.3 °F 32.0 °F 66% 29.69 in 10.0 mi SSW 5.8 mph - N/A   Overcast
1:47 PM 42.8 °F 39.3 °F 32.0 °F 66% 29.68 in 10.0 mi South 5.8 mph - N/A   Overcast
1:56 PM 41.9 °F 36.3 °F 32.9 °F 70% 29.70 in 9.0 mi SSW 9.2 mph - N/A   Overcast
2:56 PM 39.9 °F 36.7 °F 34.0 °F 79% 29.70 in 4.0 mi SSE 4.6 mph - 0.00 in Rain Light Rain
3:33 PM 37.4 °F - 35.6 °F 93% 29.70 in 2.5 mi Calm Calm - 0.00 in Rain Light Rain
3:37 PM 37.4 °F - 35.6 °F 93% 29.70 in 1.8 mi Calm Calm - 0.00 in Rain Light Rain
3:45 PM 37.4 °F - 35.6 °F 93% 29.70 in 1.5 mi Calm Calm - 0.00 in Rain Light Rain
3:56 PM 37.9 °F - 36.9 °F 96% 29.71 in 1.2 mi Calm Calm - 0.00 in Rain Light Rain
4:04 PM 37.4 °F - 37.4 °F 100% 29.69 in 1.2 mi Calm Calm - 0.00 in Rain Light Rain
4:11 PM 37.4 °F - 37.4 °F 100% 29.69 in 1.5 mi Calm Calm - 0.00 in Rain Light Rain
4:19 PM 37.4 °F - 37.4 °F 100% 29.69 in 2.0 mi Calm Calm - 0.00 in Rain Light Rain
4:30 PM 37.4 °F - 37.4 °F 100% 29.69 in 2.5 mi Calm Calm - 0.00 in Rain Light Rain
4:38 PM 37.4 °F - 37.4 °F 100% 29.69 in 2.5 mi Calm Calm - 0.00 in   Overcast
4:46 PM 37.4 °F - 37.4 °F 100% 29.70 in 2.5 mi Calm Calm - 0.00 in   Overcast
4:56 PM 36.9 °F - 36.9 °F 100% 29.71 in 2.5 mi Calm Calm - 0.00 in   Overcast
5:14 PM 37.4 °F - 37.4 °F 100% 29.69 in 2.0 mi Calm Calm - 0.00 in Rain Light Rain
5:46 PM 37.4 °F - 37.4 °F 100% 29.69 in 2.0 mi Calm Calm - 0.00 in Rain Light Rain
5:56 PM 36.9 °F - 36.9 °F 100% 29.71 in 2.5 mi Calm Calm - 0.00 in   Overcast
6:03 PM 37.4 °F - 37.4 °F 100% 29.70 in 3.0 mi Calm Calm - N/A   Overcast
6:32 PM 37.4 °F - 37.4 °F 100% 29.70 in 2.0 mi Calm Calm - 0.00 in Rain Light Rain
6:56 PM 36.9 °F - 36.9 °F 100% 29.71 in 2.5 mi Calm Calm - 0.00 in   Overcast
7:06 PM 37.4 °F - 37.4 °F 100% 29.70 in 3.0 mi Calm Calm - N/A   Overcast
7:45 PM 37.4 °F - 37.4 °F 100% 29.73 in 4.0 mi Calm Calm - 0.00 in   Overcast
7:56 PM 36.9 °F 31.4 °F 36.9 °F 100% 29.75 in 1.5 mi NNW 6.9 mph - 0.00 in Rain Rain
8:12 PM 37.4 °F 29.3 °F 37.4 °F 100% 29.75 in 2.0 mi NNW 12.7 mph - 0.00 in Rain Light Rain
8:27 PM 35.6 °F 29.2 °F 35.6 °F 100% 29.76 in 2.5 mi North 8.1 mph - 0.00 in Rain Light Rain
8:36 PM 35.6 °F 28.0 °F 35.6 °F 100% 29.76 in 4.0 mi North 10.4 mph - 0.00 in Rain Light Rain
8:56 PM 34.9 °F 32.0 °F 34.0 °F 97% 29.78 in 10.0 mi North 3.5 mph - 0.00 in   Overcast
9:56 PM 34.9 °F 32.0 °F 32.9 °F 92% 29.82 in 10.0 mi North 3.5 mph - N/A   Overcast
10:07 PM 35.6 °F 31.7 °F 33.8 °F 93% 29.81 in 10.0 mi North 4.6 mph - N/A   Overcast
10:56 PM 34.9 °F - 32.9 °F 92% 29.88 in 10.0 mi Calm Calm - N/A   Overcast
11:47 PM 35.6 °F 28.6 °F 33.8 °F 93% 29.93 in 10.0 mi NNW 9.2 mph - N/A   Overcast
11:56 PM 34.9 °F 27.7 °F 32.9 °F 92% 29.95 in 10.0 mi NNW 9.2 mph - N/A   Overcast